Meteo Giornale » Osservazioni meteo Svizzera » Ginevra-Cointrin

ore: 03:50 - Osservazioni Meteo Ginevra-Cointrin
Lat. 46° 15' N Lon. 6° 8' E Alt. 420 metri s.l.m.

nuvoloso Europe/Zurich

5 °C

Nuvoloso

Temp. 24 Ore

2 °C

11 °C

Nord

1.8 Km/h

Dew point 3 °C

Umidità 86 %

Visibilità  9 Km

Il sole sorge alle ore 07:06

Il sole tramonta alle ore 18:27

Data e Ora Cielo e Fenomeni T °C DP °C Um. % Pres. hPa Vis. km Vento km/h
Oggi h: 03:50 nuvoloso Nuvoloso 5 3 86 1025 9 N 1.8
Oggi h: 02:50 molto_nuvoloso Molto Nuvoloso 5 3 86 1025 8 N 1.8
Oggi h: 02:20 nuvoloso Nuvoloso 6 3 81 1026 8 N 5.5
Oggi h: 01:50 coperto Coperto 6 3 81 1026 8 N 3.7
Oggi h: 01:20 molto_nuvoloso Molto Nuvoloso 6 3 81 1026 10 N 0
Oggi h: 00:50 coperto Coperto 6 3 81 1027 9 N 1.8
Oggi h: 00:20 coperto Coperto 6 3 81 1027 10 N 1.8
Ieri h: 23:50 molto_nuvoloso Molto Nuvoloso 6 3 81 1027 10 N 3.7
Ieri h: 23:20 molto_nuvoloso Molto Nuvoloso 6 3 81 1027 10 N 3.7
Ieri h: 22:50 molto_nuvoloso Molto Nuvoloso 6 3 81 1027 10 N 1.8
Ieri h: 22:20 molto_nuvoloso Molto Nuvoloso 6 3 81 1028 10 N 1.8
Ieri h: 21:50 sereno Sereno 6 2 75 1028 10 N 1.8
Ieri h: 21:20 sereno Sereno 6 3 81 1028 10 N 1.8
Ieri h: 20:50 sereno Sereno 6 3 81 1028 10 N 1.8
Ieri h: 20:20 sereno Sereno 6 3 81 1028 10 N 1.8
Ieri h: 18:50 sereno Sereno 7 4 81 1028 9 N 5.5
Ieri h: 18:20 sereno Sereno 8 4 75 1028 10 N 5.5
Ieri h: 17:50 sereno Sereno 9 4 70 1028 10 N 3.7
Ieri h: 17:20 sereno Sereno 10 3 61 1028 10 N 5.5
Ieri h: 16:50 sereno Sereno 10 3 61 1028 10 N 3.7
Ieri h: 15:50 sereno Sereno 11 1 50 1029 10 N 3.7
Ieri h: 15:20 sereno Sereno 11 1 50 1029 10 N 3.7
Ieri h: 14:50 sereno Sereno 10 1 53 1030 10 N 3.7
Ieri h: 14:20 sereno Sereno 10 2 57 1030 10 N 3.7
Ieri h: 13:50 sereno Sereno 9 2 61 1030 10 N 3.7
Ieri h: 13:20 sereno Sereno 9 3 66 1031 10 N 3.7
Ieri h: 12:50 sereno Sereno 9 2 61 1031 10 N 1.8
Ieri h: 12:20 sereno Sereno 8 2 65 1031 10 N 1.8
Ieri h: 11:50 sereno Sereno 8 2 65 1031 10 N 1.8
Ieri h: 11:20 sereno Sereno 7 2 70 1032 10 N 1.8
Ieri h: 10:50 sereno Sereno 7 2 70 1032 10 N 1.8
Ieri h: 10:20 sereno Sereno 6 2 75 1032 10 N 1.8
Ieri h: 09:50 sereno Sereno 5 1 75 1032 10 N 1.8
Ieri h: 09:20 sereno Sereno 5 1 75 1032 10 N 1.8
Ieri h: 08:50 sereno Sereno 4 1 80 1032 10 N 1.8
Ieri h: 08:20 sereno Sereno 3 0 80 1032 10 N 1.8
Ieri h: 07:50 sereno Sereno 2 0 86 1031 10 N 3.7
Ieri h: 07:20 sereno Sereno 3 0 80 1031 10 N 1.8
Ieri h: 06:50 sereno Sereno 2 0 86 1031 10 N 1.8
Ieri h: 04:50 sereno Sereno 3 0 80 1031 10 N 5.5
Ieri h: 04:20 sereno Sereno 4 1 80 1031 10 N 3.7
Ieri h: 03:50 sereno Sereno 4 1 80 1031 10 N 1.8